Regional Weather Roundup
Issued by NWS Boston, MA

Current Version | Previous Version | Text Only | Print | Product List | Glossary Off
Versions: 1 2 3 4 5 6 7 8 9 10 11 12 13 14 15 16 17 18 19 20 21 22 23 24 25 26 27

000
ASUS41 KBOX 290010
RWRBOX

REGIONAL WEATHER ROUNDUP
NATIONAL WEATHER SERVICE TAUNTON MA
800 PM EDT SUN MAY 28 2017

NOTE:  "FAIR" INDICATES FEW OR NO CLOUDS BELOW 12,000 FEET WITH NO
SIGNIFICANT WEATHER AND/OR OBSTRUCTIONS TO VISIBILITY.

MAZALL-290100-
EASTERN MASSACHUSETTS

CITY           SKY/WX    TMP DP  RH WIND       PRES   REMARKS
BOSTON         CLOUDY    63  52  67 S9        29.98R
6HR MIN TEMP:  57; 6HR MAX TEMP:  63;

BEVERLY        CLOUDY    59  53  80 E3        29.98R
LAWRENCE       CLOUDY    62  54  74 E7        30.00R
BEDFORD        CLOUDY    63  49  60 S7        29.96R
BLUE HILL        N/A     59  48  67 S10       29.98R
NORWOOD        CLOUDY    62  51  67 S7        29.98R
MARSHFIELD     CLOUDY    61  50  67 CALM      29.99R
PLYMOUTH       PTCLDY    57  48  72 S6        30.00R
TAUNTON        CLOUDY    59  49  69 S5        30.00R
NEW BEDFORD    MOCLDY    55  49  80 S7        30.00S
$$

MAZALL-290100-
CAPE COD AND THE ISLANDS

CITY           SKY/WX    TMP DP  RH WIND       PRES   REMARKS
FALMOUTH         N/A    N/A N/A N/A MISG        N/A
HYANNIS        PTCLDY    53  49  86 VRB6      30.01R
CHATHAM        PTCLDY    51  48  89 VRB3      30.04R
PROVINCETOWN   PTCLDY    54  49  83 S9        30.02R
NANTUCKET      CLOUDY    50  46  86 SE9       30.03R
MARTHAS VNYRD  CLOUDY    52  47  83 S9        30.02R
$$

MAZALL-290100-
CENTRAL AND WESTERN MASSACHUSETTS

CITY           SKY/WX    TMP DP  RH WIND       PRES   REMARKS
WORCESTER      CLOUDY    60  49  66 S7        29.98R
6HR MIN TEMP:  60; 6HR MAX TEMP:  66;

FITCHBURG      CLOUDY    65  57  75 E3        29.97R
ORANGE         CLOUDY    64  57  78 S5        29.95S
SPRINGFIELD    CLOUDY    64  53  66 S10       29.95R
WESTFIELD      NOT AVBL
NORTH ADAMS      N/A    N/A N/A N/A MISG      29.92S
$$

RIZALL-290100-
RHODE ISLAND

CITY           SKY/WX    TMP DP  RH WIND       PRES   REMARKS
PROVIDENCE     CLOUDY    56  52  86 S12       30.01R
6HR MIN TEMP:  56; 6HR MAX TEMP:  68;

NEWPORT        CLOUDY    54  51  90 SE7       30.01R
BLOCK ISLAND   MOCLDY    55  50  83 SE8       30.00F
SMITHFIELD     CLOUDY    58  51  78 VRB6      30.00R
WESTERLY       CLOUDY    57  51  80 SE6       30.00F
$$

CTZALL-290100-
CONNECTICUT

CITY           SKY/WX    TMP DP  RH WIND       PRES   REMARKS
BRADLEY INTL   CLOUDY    64  48  56 S12       29.96R
6HR MIN TEMP:  64; 6HR MAX TEMP:  72;

HARTFORD       CLOUDY    63  49  60 S6        29.97R
BRIDGEPORT     CLOUDY    62  50  64 SE6       29.97R
DANBURY        CLOUDY    60  49  66 VRB6      29.98R
GROTON         CLOUDY    56  51  84 SE7       29.99S
NEW HAVEN      CLOUDY    60  50  69 SE8       29.98R
CHESTER        FAIR      57  50  77 SE5       29.99R
MERIDEN        CLOUDY    61  48  62 SE6       29.98R
WILLIMANTIC    CLOUDY    63  47  55 S5        29.98S
OXFORD         CLOUDY    59  46  63 S9        29.99R
$$

MEZ002-015-021-024-NHZ003-005-008-011-012-014-VTZ005-008-290100-
NORTHERN NEW ENGLAND

CITY           SKY/WX    TMP DP  RH WIND       PRES   REMARKS
PORTLAND ME    MOCLDY    50  46  86 SE7       30.03R
6HR MIN TEMP:  50; 6HR MAX TEMP:  57;

BANGOR ME      PTCLDY    53  45  74 S10       30.02R
CONCORD NH     MOCLDY    60  53  77 E5        29.97R
MANCHESTER NH  CLOUDY    62  52  69 E5        29.96R
NASHUA NH      CLOUDY    63  54  72 E5        29.98R
PORTSMOUTH NH  CLOUDY    51  48  89 E7        29.99S
JAFFREY NH     CLOUDY    62  59  90 CALM      29.97R
KEENE NH       CLOUDY    65  57  75 SE7       29.95R
BURLINGTON VT  MOCLDY    72  53  51 S9        29.86S
MT. WASHINGTON FOG       41  41 100 S7          N/A  VSB 1/8
$$

NYZ052-076-290100-
EASTERN NEW YORK

CITY           SKY/WX    TMP DP  RH WIND       PRES   REMARKS
ALBANY         CLOUDY    70  56  61 S10G21    29.88F
6HR MIN TEMP:  70; 6HR MAX TEMP:  73;

NEW YORK CITY  CLOUDY    65  49  56 SE10      29.94S
6HR MIN TEMP:  65; 6HR MAX TEMP:  71;

$$

ANZALL-290100-
MARINE OBSERVATIONS

STATION/POSITION TIME  TEMP    WIND        PRES    VSBY  WAVE
                       AIR SEA DIR/SP/G                  HT/PER
                 (UTC) (F)     (DEG/KT/KT) (MB)    (MI)  (FT/S)
BOSTON BUOY      2250   55 53  140/ 14/ 16 1014.2          3/ 4
BUZZARDS BAY     2300   53     140/ 12/ 13 1016.4R
NANTUCKET SOUND  2350      53              1016.4R         1/ 9
MASS BAY-STELLWA 2304   54 51  150/ 12/ 16 1014.5S         6/ 5
ISLE OF SHOALS   2300   50     120/ 12/ 13 1015.4S
S OF BLOCK IS    2355      54                N/A           3/ 7
$$

......................KEY.........................
  SKY/WX - SKY CONDITION/PRESENT WEATHER
  TMP    - TEMPERATURE IN FAHRENHEIT
  DWPT   - DEWPOINT IN FAHRENHEIT
  RH     - RELATIVE HUMIDITY IN PERCENT
  WIND   - DIRECTION AND SPEED IN MPH
  PRES   - MEAN SEA LEVEL PRESSURE IN INCHES OF HG
  WCI    - WIND CHILL INDEX
  VSB    - VISIBILITY IN MILES
  HX     - HEAT INDEX
  TC     - TEMPERATURE IN CELSIUS
  VRB    - VARIABLE WIND DIRECTION
  N/A    - NOT AVAILABLE




USA.gov is the U.S. government's official web portal to all federal, state and local government web resources and services.